Theta_e
323 311 312 315 304 301 297 301 304 303 306 315 315 313 313 315 313 307 331 334 333 337 345 346 345 346 345 343 343 346 345 341 339 340 344 346 346 345 343 342 341 339 338 337 337 336 337 336 335
313 309 313 308 300 293 296 302 302 304 308 315 315 315 315 314 325 325 329 334 336 340 344 345 343 345 345 343 344 346 346 344 341 342 345 345 344 343 341 341 340 339 337 335 336 336 336 335 334
306 310 307 302 296 294 295 301 303 305 308 312 313 319 318 318 325 328 333 334 338 341 344 343 343 345 344 343 345 345 345 345 344 343 344 344 343 341 339 339 338 337 336 334 334 335 335 334 334
307 308 305 299 297 301 300 301 302 303 306 309 315 312 321 326 327 331 334 336 338 340 343 342 344 345 344 344 345 345 345 345 344 344 344 344 342 340 339 337 336 336 335 334 334 334 334 332 332
305 302 296 295 296 301 302 297 297 301 302 304 307 311 318 326 331 332 334 336 336 338 341 343 343 344 343 344 344 345 345 344 343 344 345 343 341 339 337 336 335 335 335 334 333 332 331 330 328
300 299 290 288 292 298 298 295 298 298 301 304 310 314 318 325 328 331 334 335 337 338 339 340 337 339 341 342 343 343 344 344 343 344 343 341 340 338 336 335 334 334 333 333 332 331 329 327 326
296 291 287 289 291 294 292 294 296 295 295 300 305 312 318 323 326 331 333 335 336 338 338 340 341 338 334 338 339 341 342 342 342 342 341 339 338 338 337 336 335 333 332 332 331 329 327 327 328
298 292 290 289 289 291 292 292 296 295 295 301 318 304 302 308 325 331 333 334 335 337 338 337 339 338 339 341 333 336 338 338 339 338 335 333 333 333 333 331 333 332 330 329 328 328 328 328 328
301 285 283 288 288 289 292 290 294 297 296 296 317 302 310 321 324 330 330 330 331 333 334 337 337 337 337 339 334 332 333 333 333 332 328 327 334 334 331 327 331 332 331 329 328 328 329 328 324
293 284 289 290 290 290 291 290 291 292 292 295 295 299 301 318 322 326 325 325 326 328 329 333 334 333 334 337 336 338 338 338 334 334 333 332 331 331 329 325 327 330 329 331 330 329 329 325 326
289 287 289 290 293 291 291 290 292 290 289 291 292 295 299 311 318 321 324 326 326 328 330 331 330 331 332 334 335 336 336 336 333 332 331 330 329 328 328 328 329 330 321 330 328 327 326 324 326
285 290 291 292 292 290 289 291 289 290 292 294 295 296 298 299 308 318 322 324 326 328 330 330 329 332 332 334 333 333 333 331 330 330 330 328 326 326 326 326 327 327 328 327 326 324 323 323 323
287 288 291 291 291 290 291 289 289 290 293 294 295 295 295 297 299 310 321 324 326 326 329 330 329 330 332 332 330 330 331 328 329 328 328 327 325 324 325 325 324 325 325 324 324 322 321 322 323
288 290 289 290 289 290 288 288 289 290 292 293 294 294 294 296 297 303 317 322 324 327 327 331 329 329 330 330 332 330 330 330 328 327 327 326 325 324 323 323 323 323 324 324 323 321 321 323 323
289 285 285 286 288 288 289 285 287 290 291 291 292 293 294 295 296 298 305 320 324 327 328 329 329 330 329 331 332 331 330 328 326 324 325 325 324 324 323 323 322 323 323 322 321 321 321 322 322
283 282 279 285 287 288 287 282 287 291 290 290 292 293 294 294 296 297 300 309 323 327 328 329 330 329 328 329 330 330 329 327 325 325 324 323 323 323 323 322 322 324 323 323 321 321 321 321 321
281 277 279 281 287 287 286 282 289 291 290 291 293 294 294 295 297 298 299 303 319 326 328 328 329 328 328 328 329 329 329 328 326 325 324 324 323 323 323 322 323 323 322 322 321 321 320 320 321
279 278 279 279 284 286 284 283 288 290 290 291 293 294 295 296 297 298 300 300 309 324 328 328 329 329 328 328 328 327 327 327 327 326 325 325 324 324 323 323 323 322 322 321 320 320 320 320 321
281 280 278 281 285 285 283 284 287 289 289 292 293 294 294 296 299 301 300 300 304 322 325 329 328 328 328 326 325 324 323 324 325 326 326 325 325 324 324 324 323 322 321 322 321 320 319 319 320
282 281 279 282 285 286 283 284 287 288 289 292 293 294 294 296 298 301 302 299 307 320 322 327 328 328 328 328 327 327 325 326 327 327 326 326 325 324 324 324 323 323 322 321 320 320 319 320 321
282 281 280 281 285 284 283 281 283 289 289 291 294 295 296 296 297 300 304 305 307 320 320 324 328 328 328 328 327 324 326 323 323 324 324 325 324 325 324 324 324 323 323 322 321 321 319 319 321
280 284 285 284 281 276 283 273 281 287 287 288 291 293 293 295 298 299 301 305 307 319 323 322 326 329 328 328 326 325 323 322 324 325 325 326 325 325 325 325 324 324 323 323 323 322 320 319 317
282 285 285 285 281 276 280 274 279 286 283 285 289 291 292 294 296 298 299 303 313 318 321 323 323 325 327 328 327 325 324 325 325 325 325 324 324 325 324 325 325 324 324 322 323 323 320 320 319
287 284 283 283 280 271 279 277 275 281 282 285 288 290 292 293 295 298 299 302 308 317 321 322 321 322 324 325 325 324 323 323 322 322 322 323 321 318 318 323 324 324 325 324 323 323 323 322 322
283 279 271 269 269 271 279 276 278 285 286 285 287 288 291 293 295 296 297 299 301 309 315 320 319 319 321 322 323 322 319 317 315 315 314 314 314 315 314 316 316 317 320 321 320 319 318 318 315
282 281 271 264 267 272 279 274 280 286 287 288 288 289 291 291 293 295 296 298 300 306 312 318 318 318 319 319 318 317 316 315 316 315 313 312 313 314 315 316 317 316 317 316 317 317 316 318 316
281 280 285 279 273 274 275 279 284 287 285 285 286 287 288 290 292 293 294 297 301 307 313 314 314 314 314 313 312 312 312 311 312 312 314 314 314 313 311 313 312 312 313 314 313 311 310 309 309
284 285 277 277 267 264 273 275 278 281 281 283 283 285 287 289 291 292 293 296 300 305 308 309 308 308 309 309 309 306 306 305 305 306 305 305 305 306 306 306 307 307 308 309 308 306 305 304 303
280 281 282 281 278 272 270 274 282 280 282 281 283 285 287 288 290 292 293 295 298 299 303 304 305 305 304 304 304 302 301 301 301 300 300 299 299 300 299 299 299 301 300 301 300 299 299 298 297
281 280 280 275 273 276 277 275 283 282 283 283 283 285 287 289 291 292 295 295 294 297 297 299 299 300 301 301 300 299 299 298 298 297 297 297 296 296 296 296 295 295 296 296 296 295 296 295 294
Wind_Speed
11 9 1 4 4 4 0 0 1 6 3 2 1 2 2 0 4 3 3 8 11 17 15 16 18 17 16 15 15 14 15 16 16 17 14 14 15 15 15 14 13 12 13 12 13 13 12 10 9
6 4 3 2 4 2 2 2 4 4 4 5 2 2 2 3 1 2 6 4 13 17 15 15 14 17 16 15 15 15 16 15 15 15 14 14 16 16 13 13 11 12 12 12 12 12 11 9 9
5 2 3 4 3 3 3 1 4 6 4 1 3 2 1 3 0 5 1 11 14 15 13 13 15 17 16 15 13 19 17 15 14 13 11 15 16 15 12 12 11 12 12 11 11 11 10 9 9
3 4 4 4 3 2 2 6 7 8 6 6 3 2 1 1 4 3 8 15 15 14 12 14 16 16 15 14 11 14 15 13 12 11 12 14 15 14 11 11 10 10 11 11 10 9 9 9 8
4 3 4 3 3 2 4 7 8 5 4 5 5 3 2 5 6 5 10 12 16 13 12 13 16 16 15 14 14 14 13 12 12 11 12 13 15 13 11 11 10 9 10 9 9 8 8 7 8
5 3 4 2 3 4 4 11 6 6 5 5 9 7 4 4 6 3 5 9 12 14 12 11 12 12 14 13 12 12 12 13 13 14 15 14 13 12 11 10 10 9 8 8 7 7 6 7 7
7 4 4 2 1 4 6 14 4 6 7 6 8 5 2 7 2 0 5 6 8 10 11 9 12 11 10 10 13 14 11 12 13 13 13 12 11 11 10 8 8 8 7 6 5 5 5 5 6
5 5 4 4 2 2 6 11 4 7 5 11 3 6 6 16 3 4 5 8 8 9 9 9 9 9 8 7 9 12 11 11 11 11 11 10 9 9 9 7 7 7 6 5 4 4 4 4 5
2 6 3 2 3 6 6 8 6 6 4 7 5 7 11 13 1 4 4 5 7 7 8 9 9 8 7 6 5 10 12 11 10 11 9 8 6 7 8 6 7 6 6 5 3 2 3 4 4
6 5 1 1 1 2 6 4 7 8 12 6 17 18 15 6 2 5 5 5 8 10 10 8 8 8 8 7 6 6 7 8 6 8 8 5 6 5 5 5 6 6 6 4 2 2 3 2 1
4 4 0 2 2 3 2 7 5 6 4 5 13 19 19 13 6 6 6 6 10 11 8 9 7 10 11 9 5 4 4 4 6 8 7 6 4 3 3 3 3 2 2 2 0 1 1 1 1
6 3 3 3 5 4 4 4 7 3 3 8 11 11 10 13 13 10 8 6 6 8 9 9 10 9 11 7 6 7 5 4 5 6 8 6 4 4 4 3 3 3 2 3 2 2 2 3 3
6 4 3 4 3 4 3 7 5 4 5 10 10 15 14 13 10 10 7 6 6 7 8 9 10 10 9 9 8 5 6 5 7 6 7 6 6 5 5 4 3 3 3 3 3 3 3 3 4
2 3 4 3 6 2 10 7 1 2 10 20 20 19 16 14 12 10 7 9 10 10 10 9 11 11 10 10 10 7 6 6 7 6 7 8 6 5 5 4 4 4 4 3 3 3 3 3 3
2 3 4 6 9 5 10 5 3 4 13 17 18 17 17 16 15 12 11 10 12 12 11 12 12 13 12 10 8 7 7 7 6 6 8 9 8 8 7 6 5 5 4 4 3 4 3 3 3
7 6 7 5 9 6 5 6 7 10 10 16 19 16 16 17 16 15 14 13 11 13 14 13 12 13 13 12 8 6 7 7 6 7 7 10 9 9 8 6 6 5 4 4 4 3 3 4 4
9 2 4 9 4 6 5 7 12 15 11 16 15 17 16 16 16 16 14 13 12 14 15 14 14 15 14 13 9 8 7 7 7 7 8 10 10 10 8 7 6 6 5 5 4 4 4 3 4
3 4 3 4 7 9 4 7 14 8 8 15 16 16 19 18 21 20 20 15 13 13 16 15 12 14 13 10 8 6 6 7 7 8 8 11 9 11 9 7 7 6 5 5 5 6 5 4 5
1 1 4 4 4 10 4 8 12 12 7 14 16 16 19 21 20 19 18 14 11 11 14 16 15 15 11 9 9 8 8 8 6 7 10 11 10 11 11 8 9 8 7 8 8 5 6 5 4
0 2 5 6 5 4 6 15 6 7 7 12 18 17 20 21 21 21 18 11 10 12 15 16 15 14 14 10 9 6 9 7 8 7 9 11 11 11 10 10 9 9 8 9 8 8 4 4 5
1 2 3 6 9 1 7 6 4 10 5 13 17 18 18 19 21 22 19 13 12 12 13 15 17 15 14 13 8 4 4 2 4 4 6 9 11 11 12 12 10 10 9 8 10 10 11 8 6
1 3 5 6 6 2 5 6 5 17 22 21 20 20 21 21 21 20 19 16 13 13 12 12 13 15 14 14 11 14 9 8 8 9 9 8 12 14 14 13 12 10 8 10 9 8 9 7 7
5 0 4 2 1 3 5 2 8 17 23 24 24 21 20 20 20 20 18 17 14 5 6 7 8 9 9 11 9 8 7 4 1 2 4 4 3 3 4 8 9 10 8 9 10 9 10 8 6
4 1 3 2 1 3 3 3 6 14 19 21 21 21 20 19 21 20 19 16 14 6 4 7 9 6 5 6 6 6 4 3 3 3 3 2 5 5 7 4 6 7 8 9 9 10 10 9 7
6 4 3 6 6 4 2 3 5 16 18 15 19 23 20 17 18 19 19 16 16 12 6 6 9 6 6 7 6 7 9 10 11 8 7 8 5 5 8 7 9 7 4 3 2 5 7 6 8
3 3 5 4 2 5 5 2 1 10 12 12 13 17 19 18 15 18 17 14 16 14 7 4 9 9 8 10 12 11 10 7 7 8 5 6 6 6 7 7 12 13 15 13 10 5 9 10 7
1 5 1 1 2 2 4 4 6 15 14 18 19 19 22 20 18 19 18 17 16 14 14 14 13 14 14 15 14 12 12 10 9 10 6 5 5 7 11 9 11 9 12 10 9 9 11 10 10
4 2 2 2 3 4 4 1 5 18 21 19 21 21 20 21 20 18 18 19 16 14 15 17 17 17 15 16 14 12 14 11 13 11 10 11 11 10 10 10 9 8 9 7 9 7 9 10 8
2 2 2 1 1 1 3 3 1 7 11 15 15 17 18 18 19 18 17 15 15 17 15 16 15 17 15 12 13 13 12 12 11 10 9 11 9 10 11 10 10 10 9 8 9 8 8 9 7
1 4 2 3 3 3 1 4 3 5 9 10 13 14 15 15 14 14 16 18 20 18 17 14 15 13 11 12 12 13 11 11 9 12 10 9 9 9 9 10 11 10 9 9 8 9 8 10 9
Wind_Direction
323 314 286 43 51 62 239 164 275 314 332 326 299 136 237 108 169 230 345 194 147 152 157 158 153 152 149 151 154 156 144 143 142 146 145 147 120 112 103 106 112 110 109 114 117 117 111 100 88
318 320 36 87 90 72 260 272 324 273 288 311 322 339 3 320 20 74 120 177 158 151 155 157 151 148 150 154 164 161 152 147 147 151 146 141 128 118 117 122 119 117 117 118 122 119 111 94 79
304 35 72 84 93 184 190 145 327 301 325 272 346 65 24 315 9 174 265 146 151 152 153 149 147 149 152 159 170 159 154 150 151 154 145 150 134 122 128 126 128 128 124 124 124 120 107 92 79
2 18 38 86 215 258 41 13 329 337 351 35 345 345 171 318 313 194 147 145 148 152 151 149 148 151 155 161 168 157 150 156 158 159 150 144 128 120 135 132 128 127 128 127 123 118 108 94 84
27 51 65 42 288 343 55 0 311 348 6 321 333 333 347 28 15 111 142 151 152 149 151 157 151 153 157 164 162 159 155 156 160 157 148 145 125 136 136 132 130 127 124 124 122 113 104 91 80
44 81 73 214 264 346 50 348 308 4 331 329 3 339 48 341 7 70 130 150 158 151 154 163 149 153 158 169 167 166 162 161 151 141 141 138 137 140 139 138 138 135 131 126 120 110 95 81 72
104 85 178 142 321 1 350 329 42 334 313 358 307 350 342 17 8 141 131 134 149 153 149 150 155 158 159 167 179 166 164 166 153 144 139 137 138 140 139 140 147 145 138 131 118 96 79 67 55
93 88 84 31 28 32 338 335 341 23 300 306 329 26 345 326 222 155 155 136 156 157 156 149 150 155 163 181 161 154 153 150 150 144 138 139 140 138 138 138 150 153 148 139 125 105 79 49 29
68 63 71 38 40 303 336 359 328 304 319 315 14 42 341 327 86 167 175 145 151 171 174 163 159 155 165 171 168 146 152 159 155 135 134 135 147 149 150 150 152 150 147 150 140 103 62 35 16
62 80 107 118 65 1 298 0 318 352 332 353 346 341 335 317 248 226 211 191 169 177 179 187 175 170 182 175 164 170 170 175 144 146 156 155 157 159 160 165 170 170 169 162 128 75 44 29 349
20 102 335 125 9 332 266 323 321 335 351 33 332 327 337 338 278 260 258 237 201 190 180 172 171 188 187 188 173 176 184 173 146 155 161 160 156 162 167 168 178 186 170 175 73 317 300 291 294
91 41 45 350 340 341 328 295 324 232 272 333 304 295 321 341 343 269 252 251 221 212 181 174 169 187 193 187 182 193 191 166 154 166 166 166 167 176 180 188 187 192 182 214 243 256 270 270 276
51 346 343 324 0 32 280 296 233 290 336 307 305 323 321 320 321 326 239 239 240 222 195 181 179 194 188 193 195 184 201 167 166 167 177 179 183 187 185 201 207 215 203 223 239 250 260 270 278
304 287 297 352 358 80 0 315 71 301 342 338 329 322 318 309 308 305 280 233 223 216 211 187 189 191 193 198 196 194 182 183 170 173 187 190 190 195 201 207 216 218 213 217 232 232 238 257 267
354 32 6 30 346 30 320 25 45 337 337 318 318 313 308 305 306 289 282 262 230 218 204 195 188 192 194 194 191 181 196 180 180 179 192 198 195 199 205 214 219 222 215 229 230 233 238 259 265
33 50 4 349 356 357 26 286 299 317 324 323 321 316 312 307 300 296 285 272 236 225 212 192 189 190 195 198 183 186 185 197 180 192 195 199 206 208 210 215 225 228 217 221 229 234 243 251 255
20 345 13 318 60 356 49 292 297 316 336 340 332 323 322 315 316 301 289 269 253 220 219 200 189 192 192 200 196 192 195 203 202 196 197 203 207 208 213 218 226 214 210 214 223 230 232 251 259
318 343 330 256 313 358 317 288 302 312 333 347 339 330 325 321 316 307 298 278 264 221 217 213 189 191 191 196 186 187 197 208 206 203 206 206 207 209 207 218 228 214 219 224 215 227 216 240 257
207 257 285 251 293 347 328 301 302 314 320 347 344 337 327 321 317 309 299 271 258 224 210 207 196 194 186 185 183 190 203 204 207 213 213 214 212 209 209 214 215 209 215 226 219 223 231 237 240
10 331 342 294 285 333 332 305 288 315 307 350 343 343 330 323 326 323 318 274 249 221 208 206 202 194 190 189 195 193 195 208 210 210 213 216 210 202 206 214 218 212 212 220 215 208 210 229 214
38 68 25 316 311 333 317 297 325 348 343 344 347 341 338 332 330 326 321 308 267 217 201 203 201 196 197 193 178 145 148 121 176 204 217 217 213 210 204 210 214 211 207 215 214 207 207 219 213
25 138 327 310 353 330 31 294 308 357 352 1 349 349 342 332 331 328 325 319 294 225 203 204 201 198 194 183 181 189 197 195 205 206 208 215 213 204 207 212 211 211 205 213 215 209 214 211 218
218 358 291 281 31 55 346 54 281 355 354 351 347 349 340 331 327 326 328 327 302 234 182 187 189 209 190 181 183 197 212 228 160 206 193 206 221 296 291 237 223 212 204 214 217 205 207 206 215
292 69 87 69 341 37 297 109 300 6 347 345 337 338 343 335 320 332 339 346 340 14 139 165 159 163 165 144 137 150 171 158 115 88 87 61 65 47 14 308 223 221 215 216 211 212 212 211 211
14 58 356 1 11 229 339 71 242 2 350 341 335 332 342 341 337 340 344 343 346 354 12 127 129 136 147 149 137 118 102 93 86 79 76 81 63 45 40 28 40 40 354 108 116 102 73 97 107
1 55 131 207 322 295 340 355 270 18 343 344 343 339 339 345 346 340 344 346 354 342 338 105 120 101 103 94 92 90 88 88 89 83 84 90 83 78 54 14 68 39 52 44 56 70 62 71 48
8 61 37 256 20 302 285 308 312 342 352 353 358 352 344 345 353 345 352 357 355 14 50 71 82 79 79 75 70 60 62 63 57 65 60 60 70 78 62 55 59 50 58 54 48 45 70 65 60
75 158 96 25 30 323 294 206 301 337 343 347 352 348 343 339 356 0 1 356 3 21 50 60 65 67 67 71 72 54 58 42 59 48 56 58 45 54 50 46 49 49 54 66 73 70 51 73 73
36 83 87 94 223 219 306 263 38 313 333 337 340 339 342 346 356 3 3 7 16 30 38 52 52 63 65 54 62 66 58 44 57 62 51 56 57 56 58 54 47 43 45 42 68 74 81 85 77
228 157 140 144 243 246 183 276 83 10 351 348 341 338 341 350 354 6 15 18 17 19 22 42 48 42 55 68 61 59 55 58 43 59 51 57 58 56 66 67 63 51 41 42 52 62 56 75 63